783 visiteurs
Prévisions de votre ville :
Vigilance : 1 département le 05/03/21 à 16:00 - Voir la carte - Être alerté(e)

Paris Roissy CDG (95380) le 05/03/21 à 22:30 Choisir station

2°C 60 % NE Vit. moyenne 20 km/h
Commentez les publis

Relevés météo quotidiens pour la station de :

UTC
S: Synop
M: Metar
Loc T°C
(°C)
Td
(°C)
HR
(%)
Vis
(km)
Néb
(octa)
Vent
(km/h)
Pression
(mb)
Précipitations
(mm)
Temps
              MOY
10 min
DIR RAF 1h MESURE VAR SUR 3h    
S 00 h 01h 13.4 7.8 69 - 72 107 1003.0 -0.4/3h 0.6/6h - 0.6/3h -
S 01 h 02h 13.4 7.6 68 - 67 102 1003.4 -0.5/3h 0.0/1h -
S 02 h 03h 13.1 6.7 65 - 72 111 1002.6 +0.4/3h 0.0/1h -
S 03 h 04h 13.1 5.0 58 8 8/8 70 115 1004.6 +1.6/3h 0.0/1h
S 04 h 05h 12.9 5.3 60 - 65 111 1005.8 +2.3/3h 0.0/1h -
S 05 h 06h 12.8 5.9 63 - 65 112 1006.2 +3.5/3h 0.0/1h -
S 06 h 07h 12.9 5.3 60 8 1/8 65 111 1006.6 +1.9/3h 0.6/12h - 0.0/3h - 1.0/24h
S 07 h 08h 13.0 5.6 61 - 59 107 1007.9 +2.1/3h 0.0/1h -
S 08 h 09h 13.4 5.5 59 - 76 113 1007.7 +1.5/3h 0.0/1h -
S 09 h 10h 13.6 6.2 61 10 2/8 79 115 1008.1 +1.5/3h 0.0/3h
S 10 h 11h 13.8 5.9 59 - 78 126 1008.9 +1.0/3h 0.0/1h -
S 11 h 12h 14.0 5.9 58 - 76 126 1009.2 +1.5/3h 0.0/1h -
S 12 h 13h 14.1 5.7 57 10 2/8 69 113 1009.5 +1.4/3h 0.0/6h - 0.0/3h
S 13 h 14h 14.1 6.2 59 - 70 113 1009.8 +0.9/3h 0.0/1h -
S 14 h 15h 13.5 6.1 61 - 76 115 1009.8 +0.6/3h 0.0/1h -
S 15 h 16h 13.1 6.9 66 14 6/8 76 117 1011.0 +1.5/3h 0.0/3h
S 16 h 17h 13.0 7.0 67 - 61 112 1013.4 +3.5/3h 0.0/1h -
S 17 h 18h 13.1 6.4 64 - 37 80 1015.4 +5.5/3h 0.0/1h -
S 18 h 19h 13.0 6.3 64 - 47 76 1015.6 +4.5/3h 0.0/12h - 0.0/3h -
S 19 h 20h 13.2 6.3 63 - 58 94 1015.2 +1.8/3h 0.0/1h -
S 20 h 21h 13.2 6.3 63 - 54 86 1016.3 +0.9/3h 0.0/1h -
S 21 h 22h 13.3 7.3 67 - 54 81 1016.3 +0.7/3h 0.0/3h -
S 22 h 23h 12.9 6.2 64 - 46 91 1016.9 +1.7/3h 0.0/1h -
S 23 h 00h 12.6 5.3 61 - 50 81 1017.2 +0.9/3h 0.0/1h -

Télécharger ces données au format CSV pour le 23/12/2019

evolution des temperatures
cumul des precipitations
vent moyen et rafales
pression atmospherique

Un tiret (-) signifie que les données ne sont pas disponibles.

Passez la souris sur les pictos temps pour avoir plus de précisions. Passez les flèches sur l'icône de la direction du vent pour voir la direction précise en degrés.

Les données de l'heure en cours sont disponibles à partir de H+15 minutes.


S signifie station Synop, plus complète qu'une station Metar (M). Il y a +1h de différence entre l'heure UTC et l'heure légale en hiver et +2h en été.

Td est la mesure du point de rosée.

HR est l'humidité relative/p>

Vis est la visibilité

Néb est la nébulosité du ciel (couverture nuageuse) exprimée en octas (de 0/8 à 8/8).

Vent moy 10 min donne le vent moyen sur les 10 minutes qui précèdent le relevé.

Vent raf 1h donne la rafale maximale mesurée dans l'heure qui précède le relevé.


Les données les plus anciennes remontent à avril 2014.

Les données présentées sur cette page proviennent des stations météo officielles. Les relevés sont effectués aux normes en vigueur (anémomètre à 10m de haut, thermomètre sous abri normalisé à 2m du sol...)

Météo 60 décline toute responsabilité en cas d'absence de données, d'erreurs, de mauvaise utilisation ou interprétation et n'est pas habilité à fournir des certificats intempéries.